Regional Weather Roundup
Issued by NWS

Home | Current Version | Previous Version | Text Only | Print | Product List | Glossary Off
Versions: 1 2 3 4 5 6 7 8 9 10 11 12 13 14 15 16 17 18 19 20 21 22 23 24 25 26 27

000
ASUS43 KDMX 201607
RWRIA

WEATHER ROUNDUP FOR IOWA
NATIONAL WEATHER SERVICE DES MOINES IA
1100 AM CDT SUN APR 20 2014

NOTE: "FAIR" INDICATES FEW OR NO CLOUDS BELOW 12,000 FEET WITH NO
SIGNIFICANT WEATHER AND/OR OBSTRUCTIONS TO VISIBILITY.

* - THESE STATIONS ARE NOT NWS STATIONS...THUS NOT UNDER NWS
QUALITY CONTROL.  THEY ALSO DO NOT REPORT WEATHER SUCH
AS PRECIPITATION OR FOG.

IAZ001>003-012>014-020>022-031>034-043>046-201700-
   NORTHWEST IOWA

CITY           SKY/WX    TMP DP  RH WIND       PRES   REMARKS
CARROLL *      SUNNY     72  50  46 SW10G18   30.00R
CHEROKEE *     PTSUNNY   64  54  68 SW5       30.00R
DENISON *      SUNNY     70  50  49 SW6G16    29.99S
LE MARS *      SUNNY     66  50  55 CALM      29.99S
ORANGE CITY *  SUNNY     66  48  52 CALM      29.99S
SHELDON *      SUNNY     66  46  48 SE8       29.99S
SIOUX CITY     PTSUNNY   67  53  61 VRB5      29.97F
SPENCER        SUNNY     67  49  52 S10       30.01R
STORM LAKE *   SUNNY     64  55  72 VRB5      30.02S
$$

IAZ055>058-069>071-079>083-090>094-201700-
   SOUTHWEST IOWA

CITY           SKY/WX    TMP DP  RH WIND       PRES   REMARKS
ATLANTIC *     SUNNY     73  52  46 SW17G23   30.01S
AUDUBON *      SUNNY     72  46  40 SW12      30.02S
CLARINDA *     SUNNY     75  52  43 S21G26    30.03S
COUNCIL BLFS * SUNNY     72  54  53 SW13G18   30.00S
CRESTON *      SUNNY     72  52  49 SW16G23   30.04F
HARLAN  *      SUNNY     72  52  49 SW13G24   30.04R
LAMONI         MOSUNNY   74  51  44 S14       30.07S
RED OAK *      SUNNY     73  52  46 SW15G21   30.02S
SHENANDOAH *   SUNNY     77  52  41 SW15G23   30.02S
$$

IAZ047>049-059>061-072>074-084-201700-
   CENTRAL IOWA

CITY           SKY/WX    TMP DP  RH WIND       PRES   REMARKS
AMES           SUNNY     72  52  49 S9        30.03F
ANKENY *       SUNNY     75  52  43 SW15G23   30.03F
CHARITON *     SUNNY     73  50  43 SW14G21   30.07S
DES MOINES     PTSUNNY   76  51  41 S15G22    30.04F
GRINNELL*      MOSUNNY   72  48  43 S17       30.07F
KNOXVILLE *    SUNNY     73  50  43 SW12G21   30.07R
MARSHALLTOWN   CLOUDY    66  50  56 S8        30.06S
NEWTON *       MOSUNNY   75  50  41 S13G20    30.06F
PELLA *        MOSUNNY   75  50  41 SW15G21   30.08S
PERRY *          N/A     75  46  35 SW12G21   30.02R
$$

IAZ004>006-015-016-023>025-035-036-201700-
   NORTH CENTRAL IOWA

CITY           SKY/WX    TMP DP  RH WIND       PRES   REMARKS
ALGONA *       CLOUDY    59  57  94 S13       30.04R
CLARION *      MOSUNNY   57  54  88 S12       30.03R
ESTHERVILLE    PTSUNNY   62  52  69 S9        30.01R
FORT DODGE *   PTSUNNY   64  54  68 CALM      30.04R
MASON CITY     LGT RAIN  53  52  96 SE14      30.02F FOG
FOREST CITY *  LGT RAIN  54  54 100 SW3       30.03R
IOWA FALLS *   PTSUNNY   64  52  63 SE7       30.06F
$$

IAZ007>011-017>019-026>030-037>042-050>054-066-201700-
   NORTHEAST IOWA

CITY           SKY/WX    TMP DP  RH WIND       PRES   REMARKS
CEDAR RAPIDS     N/A     73  46  38 S12       30.08F
CHARLES CITY * LGT RAIN  52  50  93 S5        30.10R
CLINTON *      SUNNY     72  43  35 S14       30.15S
DECORAH *      LGT RAIN  54  52  94 S5        30.10S
DUBUQUE        PTSUNNY   69  45  41 SW17      30.11S
MONTICELLO *   MOSUNNY   70  46  43 S8        30.10F
OELWEIN *      LGT RAIN N/A N/A N/A CALM      30.12R
WATERLOO       LGT RAIN  54  49  83 MISG      30.09R
$$

IAZ064-065-067-068-078-201700-
   EAST CENTRAL IOWA

CITY           SKY/WX    TMP DP  RH WIND       PRES   REMARKS
DAVENPORT      SUNNY     74  43  32 S14       30.13S
IOWA CITY      MOSUNNY   73  47  39 S10       30.12S
MT. PLEASANT * SUNNY     73  43  33 SW9       30.13S
MUSCATINE *    SUNNY     75  46  35 SW10G18   30.11F
QUAD CITIES    SUNNY     74  43  32 SW12      30.13R
$$

IAZ062-063-075>077-085>089-095>099-201700-
   SOUTHEAST IOWA

CITY           SKY/WX    TMP DP  RH WIND       PRES   REMARKS
BURLINGTON     MOSUNNY   71  47  42 S10       30.13S
FAIRFIELD *    SUNNY     75  46  35 S15       30.11F
FORT MADISON * SUNNY     70  46  43 S10       30.14S
KEOKUK *       SUNNY     70  46  43 SW8       30.13S
OSKALOOSA *      N/A     73  46  38 SW14      30.09F
CENTERVILLE *  SUNNY     73  50  43 S15G21    30.11S
OTTUMWA        MOSUNNY   74  47  38 S14       30.09S
WASHINGTON *   SUNNY     75  46  35 SW13      30.11S
$$

ABBREVIATIONS USED IN REMARKS
   TC - TEMPERATURES IN CELSIUS
  WCI - WIND CHILL INDEX
   HX - HEAT INDEX
  VSB - VISIBILITY
$$




USA.gov is the U.S. government's official web portal to all federal, state and local government web resources and services.